Tracking 17857 objects as of 30-September-2016
HD Live streaming from Space Station
objects crossing your sky now

ZY 3

Track ZY 3 now!
10-day predictions
ZY 3 is classified as:


NORAD ID: 38046
Int'l Code: 2012-001A
Perigee: 507.2 km
Apogee: 510.9 km
Inclination: 97.3 °
Period: 94.7 minutes
Semi major axis: 6880 km
RCS: 5.391 m2 (large)
Launch date: January 9, 2012
Source: People's Republic of China (PRC)
Launch site: Taiyaun Space Center, China (TSC)
Your satellite tracking list
Your tracking list is empty





NASA's NSSDC Master Catalog

Two Line Element Set (TLE):
1 38046U 12001A   16273.80192203  .00001873  00000-0  86707-4 0  9990
2 38046  97.3198 341.9166 0002682 108.5195  32.7933 15.21315585262369
Source of the keplerian elements: AFSPC

N2YO: 901